Tracking 17855 objects as of 25-September-2016
HD Live streaming from Space Station
objects crossing your sky now

COSMOS 1478

Track COSMOS 1478 now!
10-day predictions
COSMOS 1478 is classified as:


NORAD ID: 14176
Int'l Code: 1983-069F
Perigee: 1,470.0 km
Apogee: 1,488.2 km
Inclination: 74.0 °
Period: 115.4 minutes
Semi major axis: 7850 km
RCS: 0.7085 m2 (medium)
Launch date: July 6, 1983
Source: Commonwealth of Independent States (former USSR) (CIS)
Launch site: PLESETSK MISSILE AND SPACE COMPLEX (PKMTR)
Your satellite tracking list
Your tracking list is empty





NASA's NSSDC Master Catalog

Two Line Element Set (TLE):
1 14176U 83069F   16268.51074794 -.00000005  00000-0  72077-4 0  9998
2 14176  74.0244  66.4628 0011581  87.6011 329.5423 12.48213982514023
Source of the keplerian elements: AFSPC

N2YO: 580